Location: Dixon
(37.9953°N, 92.0959°W)
Time: 23:20:30
(UTC+00:00)

ARIANE 6 FM1 Upper Stage - Pass Details

Date: 16 December 2025
Orbit: 522 x 610 km, 62.0° (Epoch: 15 January)

Event Time Altitude Azimuth Distance (km) Brightness Sun altitude
Exits shadow 11:17:37 - 197° (SSW) 2,341 5.8 -22.9°
Reaches altitude 10° 11:18:59 10° 193° (SSW) 1,805 5.2 -22.7°
Maximum altitude 11:22:51 45° 120° (ESE) 740 3.6 -21.9°
Drops below altitude 10° 11:26:40 10° 47° (NE) 1,777 5.6 -21.2°
Sets 11:28:54 0° 41° (NE) 2,663 6.5 -20.8°
